When you browse on this site, cookies collect data to enhance your experience and personalize the content and advertising you see.
Visit our Privacy Policy to learn more. By continuing to use the site, you agree to this use of cookies and data.
  • In Österreich
  • Länderverzeichnis
  • Für 7 Tage
  • Wassertemperatur
  • Satellitenkarten
  • Wetterkarte
  • News
  • Widgets
  • user-avatar
    Anmelden

    Stündliche Wetter Dzierzbin

    Heute, 20 Februar, Mittwoch

    Zeit Temperatur Niederschläge Wind Luftdruck Luftfeuchtigkeit
    00:00 +3°C° 0 mm 6 m/S 749 mmHg 85%
    01:00 +2°C° 0 mm 5 m/S 749 mmHg 85%
    02:00 +2°C° 0 mm 5 m/S 749 mmHg 87%
    03:00 +2°C° 0 mm 5 m/S 750 mmHg 88%
    04:00 +2°C° 0 mm 6 m/S 750 mmHg 90%
    05:00 +2°C° 0 mm 6 m/S 750 mmHg 89%
    06:00 +2°C° 0 mm 6 m/S 750 mmHg 87%
    07:00 +2°C° 0 mm 6 m/S 751 mmHg 86%
    08:00 +2°C° 0.1 mm 6 m/S 751 mmHg 83%
    09:00 +2°C° 0.1 mm 6 m/S 751 mmHg 80%
    10:00 +3°C° 0.1 mm 6 m/S 752 mmHg 77%
    11:00 +3°C° 0 mm 6 m/S 752 mmHg 76%
    12:00 +3°C° 0 mm 6 m/S 752 mmHg 74%
    13:00 +3°C° 0 mm 7 m/S 752 mmHg 73%
    14:00 +3°C° 0.1 mm 6 m/S 753 mmHg 74%
    15:00 +3°C° 0.1 mm 6 m/S 753 mmHg 74%
    16:00 +4°C° 0.1 mm 6 m/S 753 mmHg 75%
    17:00 +3°C° 0.1 mm 5 m/S 753 mmHg 76%
    18:00 +4°C° 0.1 mm 4 m/S 754 mmHg 78%
    19:00 +4°C° 0.1 mm 4 m/S 754 mmHg 79%
    20:00 +4°C° 0 mm 4 m/S 754 mmHg 80%
    21:00 +4°C° 0 mm 4 m/S 755 mmHg 82%
    22:00 +4°C° 0 mm 3 m/S 755 mmHg 83%
    23:00 +4°C° 0 mm 3 m/S 755 mmHg 84%

    Morgen, 21 Februar, Donnerstag

    Zeit Temperatur Niederschläge Wind Luftdruck Luftfeuchtigkeit
    00:00 +4°C° 0 mm 3 m/S 755 mmHg 84%
    01:00 +4°C° 0 mm 3 m/S 755 mmHg 85%
    02:00 +4°C° 0 mm 3 m/S 755 mmHg 87%
    03:00 +4°C° 0 mm 4 m/S 755 mmHg 89%
    04:00 +3°C° 0 mm 4 m/S 755 mmHg 91%
    05:00 +3°C° 0 mm 4 m/S 755 mmHg 90%
    06:00 +3°C° 0 mm 4 m/S 755 mmHg 89%
    07:00 +3°C° 0 mm 4 m/S 755 mmHg 87%
    08:00 +2°C° 0.2 mm 5 m/S 755 mmHg 86%
    09:00 +3°C° 0.2 mm 5 m/S 754 mmHg 86%
    10:00 +3°C° 0.2 mm 6 m/S 754 mmHg 85%
    11:00 +3°C° 0.7 mm 6 m/S 754 mmHg 84%
    12:00 +3°C° 0.7 mm 6 m/S 754 mmHg 84%
    13:00 +4°C° 0.7 mm 7 m/S 754 mmHg 83%
    14:00 +4°C° 1 mm 7 m/S 753 mmHg 85%
    15:00 +3°C° 1 mm 7 m/S 753 mmHg 86%
    16:00 +3°C° 1 mm 7 m/S 753 mmHg 87%
    17:00 +4°C° 0.5 mm 7 m/S 752 mmHg 88%
    18:00 +4°C° 0.5 mm 6 m/S 752 mmHg 89%
    19:00 +4°C° 0.5 mm 6 m/S 752 mmHg 89%
    20:00 +4°C° 0.3 mm 6 m/S 752 mmHg 90%
    21:00 +4°C° 0.3 mm 6 m/S 752 mmHg 91%
    22:00 +4°C° 0.3 mm 7 m/S 752 mmHg 92%
    23:00 +5°C° 0.8 mm 7 m/S 752 mmHg 91%

    übermorgen, 22 Februar, Freitag

    Zeit Temperatur Niederschläge Wind Luftdruck Luftfeuchtigkeit
    00:00 +5°C° 0.8 mm 7 m/S 752 mmHg 90%
    01:00 +5°C° 0.8 mm 7 m/S 752 mmHg 89%
    02:00 +4°C° 0.6 mm 7 m/S 753 mmHg 90%
    03:00 +4°C° 0.6 mm 6 m/S 753 mmHg 90%
    04:00 +4°C° 0.6 mm 6 m/S 754 mmHg 90%
    05:00 +2°C° 0.1 mm 7 m/S 755 mmHg 86%
    06:00 0°C° 0.1 mm 7 m/S 756 mmHg 82%
    07:00 -2°C° 0.1 mm 8 m/S 757 mmHg 78%
    08:00 -2°C° 0 mm 7 m/S 759 mmHg 71%
    09:00 -2°C° 0 mm 7 m/S 760 mmHg 65%
    10:00 -3°C° 0 mm 7 m/S 761 mmHg 58%
    11:00 -2°C° 0 mm 6 m/S 762 mmHg 55%
    12:00 -2°C° 0 mm 6 m/S 763 mmHg 52%
    13:00 -2°C° 0 mm 6 m/S 764 mmHg 50%
    14:00 -1°C° 0 mm 5 m/S 764 mmHg 48%
    15:00 -1°C° 0 mm 5 m/S 765 mmHg 47%
    16:00 -1°C° 0 mm 5 m/S 765 mmHg 46%
    17:00 -2°C° 0 mm 5 m/S 766 mmHg 49%
    18:00 -3°C° 0 mm 4 m/S 766 mmHg 52%
    19:00 -4°C° 0 mm 4 m/S 767 mmHg 55%
    20:00 -4°C° 0 mm 4 m/S 768 mmHg 54%
    21:00 -4°C° 0 mm 4 m/S 768 mmHg 54%
    22:00 -4°C° 0 mm 4 m/S 768 mmHg 53%
    23:00 -5°C° 0 mm 4 m/S 769 mmHg 51%

    23 Februar, Samstag

    Zeit Temperatur Niederschläge Wind Luftdruck Luftfeuchtigkeit
    00:00 -5°C° 0 mm 4 m/S 769 mmHg 48%
    01:00 -5°C° 0 mm 4 m/S 769 mmHg 46%
    02:00 -5°C° 0 mm 3 m/S 769 mmHg 44%
    03:00 -5°C° 0 mm 3 m/S 769 mmHg 42%
    04:00 -4°C° 0 mm 2 m/S 769 mmHg 41%
    05:00 -4°C° 0 mm 2 m/S 769 mmHg 40%
    06:00 -4°C° 0 mm 2 m/S 769 mmHg 40%
    07:00 -4°C° 0 mm 2 m/S 770 mmHg 39%
    08:00 -4°C° 0 mm 2 m/S 770 mmHg 37%
    09:00 -3°C° 0 mm 2 m/S 770 mmHg 34%
    10:00 -4°C° 0 mm 3 m/S 770 mmHg 32%
    11:00 -2°C° 0 mm 2 m/S 770 mmHg 30%
    12:00 -2°C° 0 mm 2 m/S 770 mmHg 28%
    13:00 +1°C° 0 mm 1 m/S 769 mmHg 26%
    14:00 +1°C° 0 mm 1 m/S 769 mmHg 27%
    15:00 +1°C° 0 mm 1 m/S 769 mmHg 28%
    16:00 +1°C° 0 mm 1 m/S 769 mmHg 29%
    17:00 0°C° 0 mm 1 m/S 769 mmHg 31%
    18:00 0°C° 0 mm 1 m/S 769 mmHg 34%
    19:00 -2°C° 0 mm 0 m/S 769 mmHg 37%
    20:00 -2°C° 0 mm 0 m/S 769 mmHg 37%
    21:00 -1°C° 0 mm 0 m/S 768 mmHg 36%
    22:00 -1°C° 0 mm 0 m/S 768 mmHg 36%
    23:00 -1°C° 0 mm 0 m/S 768 mmHg 36%

    24 Februar, Sonntag

    Zeit Temperatur Niederschläge Wind Luftdruck Luftfeuchtigkeit
    00:00 0°C° 0 mm 1 m/S 768 mmHg 36%
    01:00 0°C° 0 mm 1 m/S 768 mmHg 37%
    02:00 0°C° 0 mm 1 m/S 768 mmHg 37%
    03:00 0°C° 0 mm 1 m/S 768 mmHg 37%
    04:00 0°C° 0 mm 1 m/S 767 mmHg 38%
    05:00 0°C° 0 mm 1 m/S 767 mmHg 38%
    06:00 -2°C° 0 mm 2 m/S 767 mmHg 38%
    07:00 -2°C° 0 mm 2 m/S 767 mmHg 38%
    08:00 -1°C° 0 mm 2 m/S 767 mmHg 36%
    09:00 -1°C° 0 mm 2 m/S 767 mmHg 33%
    10:00 +1°C° 0 mm 2 m/S 767 mmHg 31%
    11:00 +2°C° 0 mm 2 m/S 767 mmHg 31%
    12:00 +3°C° 0 mm 2 m/S 766 mmHg 31%
    13:00 +4°C° 0 mm 2 m/S 766 mmHg 31%
    14:00 +4°C° 0 mm 2 m/S 766 mmHg 36%
    15:00 +3°C° 0 mm 2 m/S 766 mmHg 41%
    16:00 +3°C° 0 mm 2 m/S 765 mmHg 46%
    17:00 +2°C° 0 mm 2 m/S 766 mmHg 49%
    18:00 +1°C° 0 mm 2 m/S 766 mmHg 52%
    19:00 +1°C° 0 mm 1 m/S 766 mmHg 55%
    20:00 +1°C° 0 mm 1 m/S 766 mmHg 56%
    21:00 +1°C° 0 mm 1 m/S 766 mmHg 57%
    22:00 +1°C° 0 mm 1 m/S 766 mmHg 57%
    23:00 -1°C° 0 mm 2 m/S 766 mmHg 58%

    25 Februar, Montag

    Zeit Temperatur Niederschläge Wind Luftdruck Luftfeuchtigkeit
    00:00 -1°C° 0 mm 2 m/S 766 mmHg 59%
    01:00 -1°C° 0 mm 2 m/S 766 mmHg 59%
    02:00 -1°C° 0 mm 2 m/S 765 mmHg 60%
    03:00 -1°C° 0 mm 2 m/S 765 mmHg 61%
    04:00 -1°C° 0 mm 3 m/S 765 mmHg 62%
    05:00 -1°C° 0 mm 3 m/S 765 mmHg 64%
    06:00 -1°C° 0 mm 3 m/S 765 mmHg 65%
    07:00 -1°C° 0 mm 3 m/S 765 mmHg 66%
    08:00 0°C° 0 mm 3 m/S 765 mmHg 64%
    09:00 +1°C° 0 mm 3 m/S 765 mmHg 62%
    10:00 +1°C° 0 mm 4 m/S 765 mmHg 61%
    11:00 +3°C° 0 mm 4 m/S 765 mmHg 63%
    12:00 +4°C° 0 mm 4 m/S 765 mmHg 65%
    13:00 +6°C° 0 mm 5 m/S 765 mmHg 68%
    14:00 +6°C° 0 mm 4 m/S 764 mmHg 69%
    15:00 +6°C° 0 mm 4 m/S 764 mmHg 70%
    16:00 +6°C° 0 mm 4 m/S 764 mmHg 71%
    17:00 +5°C° 0 mm 4 m/S 764 mmHg 73%
    18:00 +4°C° 0 mm 3 m/S 765 mmHg 75%
    19:00 +3°C° 0 mm 3 m/S 765 mmHg 77%
    20:00 +2°C° 0 mm 3 m/S 765 mmHg 78%
    21:00 +2°C° 0 mm 3 m/S 765 mmHg 80%
    22:00 +1°C° 0 mm 3 m/S 765 mmHg 82%
    23:00 +1°C° 0 mm 3 m/S 765 mmHg 83%
    Mehr zeigen